Skip Page Navigation
NASA JPL Caltech
NASA Logo - Jet Propulsion Laboratory + View the NASA Portal
+ Near-Earth Object (NEO) Program
Search JPL
JPL Home Earth Solar System Stars & Galaxies Technology
JPL Solar System Dynamics
BODIES ORBITS EPHEMERIDES TOOLS PHYSICAL DATA DISCOVERY FAQ SITE MAP
JPL Small-Body Database Browser
Search: [ help ]  
6921 Janejacobs (1993 JJ)
Classification: Main-belt Asteroid          SPK-ID: 2006921
Ephemeris | Orbit Diagram | Orbital Elements | Physical Parameters | Discovery Circumstances ]

[ hide orbit diagram ]
Orbit Diagram
Note: Make sure you have Java enabled on your browser to see the applet. This applet is provided as a 3D orbit visualization tool. The applet was implemented using 2-body methods, and hence should not be used for determining accurate long-term trajectories (over several years or decades) or planetary encounter circumstances. For accurate long-term ephemerides, please instead use our Horizons system.
Orbit Viewer

Additional Notes: the orbits shown in the applet are color coded. The planets are white lines, and the asteroid/comet is a blue line. The bright white line indicates the portion of the orbit that is above the ecliptic plane, and the darker portion is below the ecliptic plane. Likewise for the asteroid/comet orbit, the light blue indicates the portion above the ecliptic plane, and the dark blue the portion below the ecliptic plane.

Orbit Viewer applet originally written and kindly provided by Osamu Ajiki (AstroArts), and further modified by Ron Baalke (JPL).


Orbital Elements at Epoch 2456400.5 (2013-Apr-18.0) TDB
Reference: JPL 1 (heliocentric ecliptic J2000)
 Element Value Uncertainty (1-sigma)   Units 
e .08254247253193173 6.9312e-08  
a 2.278431988059712 1.4707e-08 AU
q 2.090364578269418 1.5811e-07 AU
i 5.321080365786633 5.8706e-06 deg
node 89.26300696611709 7.4526e-05 deg
peri 248.913263493835 8.5647e-05 deg
M 185.7784682924813 4.5874e-05 deg
tp 2457008.427595486225
(2014-Dec-16.92759549)
0.00016201 JED
period 1256.181898012758
3.44
1.2163e-05
3.33e-08
d
yr
n .2865826999811963 2.7748e-09 deg/d
Q 2.466499397850005 1.5921e-08 AU
  Orbit Determination Parameters
   # obs. used (total)      1178  
   data-arc span      13444 days (36.81 yr)  
   first obs. used      1976-06-20  
   last obs. used      2013-04-11  
   planetary ephem.      DE405  
   SB-pert. ephem.      SB405-CPV-2  
   condition code      0  
   fit RMS      .54945  
   data source      ORB  
   producer      Otto Matic  
   solution date      2013-Apr-29 13:23:59  

Additional Information
 Earth MOID = 1.08733 AU 
 T_jup = 3.597 
[ show covariance matrix ]

Ephemeris | Orbit Diagram | Orbital Elements | Physical Parameters | Discovery Circumstances ]

Physical Parameter Table
Parameter Symbol Value Units Sigma Reference Notes
absolute magnitude H 13.0 mag n/a PDS3 (MPC 28116)  

6921 Janejacobs           Discovered 1993 May 14 by S. Ueda and H. Kaneda at Kushiro.
Having moved to New York City during the Depression, Jane Jacobs (1916-2006) was way ahead of her time in championing the idea that cities are more important than nations in the "real economic world". Cities should not be laboratories for ill-placed expressways and housing projects but left to develop by themselves.
NOTE: some special characters may not display properly (any characters within {} are an attempt to place the proper accent above a character)
Reference: 20060613/MPCPages.arcLast Updated: 2008-05-22

Alternate Designations
 1993 JJ = 1976 MB = 1977 XV2 = 1980 TU1 = 1984 YN = 1987 SH22 = 1990 HE2 = 1990 MV1 = 1992 BF5 
Ephemeris | Orbit Diagram | Orbital Elements | Physical Parameters | Discovery Circumstances ]
ABOUT SSD CREDITS/AWARDS PRIVACY/COPYRIGHT GLOSSARY LINKS
FirstGov 2013-May-20 02:23 UT
(server date/time)  
NASA Home Page
Site Manager:   Donald K. Yeomans
Webmaster  Alan B. Chamberlin